Flag for U.S.A. Weather past 2 weeks in Portland, Maine, U.S.A.

Now
39 °F

Sunny.


Feels Like: 33 °F
Forecast: 23 / 38 °F
Wind: 9 mph from South

Location: Portland - Portland International Jetport

Current Time: Mar 29, 2015 at 5:33:09 PM

Latest Report: Mar 29, 2015 at 4:51 PM


Visibility: 10 mi

Pressure: 30.08 "Hg

Humidity: 41%

Dew point: 17 °F

Location of PortlandLocation

Historic Weather in Portland — Graph

°F

Portland temperature yesterday

Maximum temperature yesterday: 40 °F (at 5:51 PM)
Minimum temperature yesterday: 30 °F (at 11:51 PM)
Average temperature yesterday: 36 °F

Past Weeks' High & Low Weather Summary

 TemperatureHumidityPressure
High48 °F (Mar 26, 11:51 AM)97% (Mar 14, 6:51 PM)30.40 "Hg (Mar 14, 6:51 PM)
Low13 °F (Mar 20, 5:51 AM)21% (Mar 19, 5:51 PM)29.34 "Hg (Mar 17, 3:51 PM)
Average31 °F58%29.94 "Hg
* Reported Mar 14 3:51 PM — Mar 29 3:51 PM, Portland, Weather by CustomWeather, © 2015

Note: Actual official high and low records may vary slightly from our data, if they occured in-between our weather recording intervals... More about our weather records

Advertising

Portland weather history for previous 24 hours

 ConditionsComfort  
Time TempWeatherWind HumidityBarometerVisibility
3:51 PM
Sun, Mar 29
38 °FSunny.13 mph41%30.09 "Hg10 mi
2:51 PM37 °FSunny.12 mph41%30.11 "Hg10 mi
1:51 PM39 °FSunny.8 mph28%30.13 "Hg10 mi
12:51 PM39 °FSunny.7 mph22%30.15 "Hg10 mi
11:51 AM38 °FSunny.3 mph23%30.17 "Hg10 mi
10:51 AM36 °FSunny.3 mph27%30.18 "Hg10 mi
9:51 AM33 °FSunny.6 mph29%30.19 "Hg10 mi
8:51 AM30 °FSunny.6 mph33%30.18 "Hg10 mi
7:51 AM27 °FSunny.5 mph45%30.16 "Hg10 mi
6:51 AM22 °FClear.6 mph52%30.14 "Hg10 mi
5:51 AM22 °FClear.6 mph48%30.11 "Hg10 mi
4:51 AM23 °FClear.6 mph48%30.09 "Hg10 mi
3:51 AM26 °FClear.8 mph40%30.07 "Hg10 mi
2:51 AM27 °FPassing clouds.8 mph41%30.05 "Hg10 mi
1:51 AM28 °FPassing clouds.9 mph43%30.04 "Hg10 mi
12:51 AM30 °FOvercast.N/A45%30.03 "Hg10 mi
11:51 PM
Sat, Mar 28
30 °FPassing clouds.13 mph49%30.01 "Hg10 mi
10:51 PM32 °FPassing clouds.14 mph52%29.98 "Hg10 mi
9:51 PM34 °FPassing clouds.12 mph50%29.95 "Hg10 mi
8:51 PM36 °FPassing clouds.13 mph50%29.91 "Hg10 mi
7:51 PM38 °FOvercast.3 mph48%29.87 "Hg10 mi
6:51 PM39 °FOvercast.5 mph48%29.83 "Hg10 mi
5:51 PM40 °FPartly sunny.6 mph47%29.80 "Hg10 mi
Weather by CustomWeather, © 2015

See weather overviewHow to use our weather pages